Regional Weather Roundup
Issued by NWS

Home | Current Version | Previous Version | Text Only | Print | Product List | Glossary On
Versions: 1 2 3 4 5 6 7 8 9 10 11 12 13 14 15 16 17 18 19 20 21 22 23 24 25 26 27 28 29 30 31 32 33 34 35 36 37 38 39 40 41 42 43 44 45 46 47 48 49 50
085
ASUS46 KLOX 240913
RWRCA

SOUTHERN CALIFORNIA WEATHER ROUNDUP
NATIONAL WEATHER SERVICE OXNARD CALIFORNIA
200 AM PDT TUE MAY 24 2016

NOTE: "FAIR" INDICATES FEW OR NO CLOUDS BELOW 12,000 FEET WITH NO
SIGNIFICANT WEATHER AND/OR OBSTRUCTIONS TO VISIBILITY.

  -  STATIONS PRECEEDED BY AN ASTERISK (*) ARE NOT NWS OR FAA
     STATIONS AND ARE NOT SUBJECT TO NWS AND FAA QUALITY CONTROL.

CAZ041-042-087-241000-
LA AND ORANGE COUNTY COASTAL AREAS


CITY           SKY/WX    TMP DP  RH WIND       PRES   REMARKS
L.A. DOWNTOWN  CLEAR     58  51  78 CALM      29.92S
L.A. AIRPORT   MOCLDY    58  52  80 W5        29.93S
LONG BEACH     CLEAR     59  52  77 CALM      29.93S

CITY           SKY/WX    TMP DP  RH WIND       PRES   REMARKS
AVALON           N/A     55 N/A N/A MISG        N/A
FULLERTON      CLOUDY    62  51  67 CALM      29.92S
*GETTY CENTER    N/A     52  50  93 SW6         N/A
HAWTHORNE      CLEAR     59  52  77 CALM      29.93S
*LEO CARRILLO    N/A     53  46  77 N5          N/A
*LOS ALAMITOS  FAIR      58  51  78 NW1       29.93R
*REDONDO BEACH   N/A     55  50  82 CALM      29.92S
SANTA ANA      CLOUDY    61  50  67 SE5       29.93S
STA MONICA APT PTCLDY    58  51  78 CALM      29.93S
*STA MON PIER    N/A     59  54  84 W6        29.86S
*UCLA            N/A     55  50  82 W3        29.90S

$$

CAZ547-548-048-241000-
LA COUNTY VALLEYS AND INLAND EMPIRE


CITY           SKY/WX    TMP DP  RH WIND       PRES   REMARKS
BURBANK        CLOUDY    57  51  80 S5        29.91F
VAN NUYS       CLOUDY    56  50  80 SE3       29.92S

CITY           SKY/WX    TMP DP  RH WIND       PRES   REMARKS
CORONA AIRPORT CLOUDY    58  49  72 CALM      29.93F
*CHATSWORTH      N/A     56  50  78 E2        29.93S
CHINO          CLOUDY    59  49  69 CALM      29.94S
MARCH AFB      CLOUDY    54  48  79 S10       29.93S
*NORTHRIDGE      N/A     55  48  76 SE2         N/A
ONTARIO        MOCLDY    58  47  66 SW8       29.92S
*PASADENA        N/A     59  52  77 E3          N/A
RIVERSIDE      CLOUDY    58  48  69 VRB3      29.93S
SAN BERNARDINO NOT AVBL
*SAN GABRIEL     N/A     59  53  78 S2        29.99S
*SAUGUS          N/A     55  47  73 S9          N/A
*WHITEMAN AP   NOT AVBL
*WHITTIER HILL   N/A     54  50  85 S2          N/A
*WOODLAND HILL   N/A     55  48  76 SE2         N/A

$$

CAZ054-055-241000-
LA AND SAN BERNARDINO COUNTY MOUNTAINS


CITY           SKY/WX    TMP DP  RH WIND       PRES   REMARKS
*ACTON           N/A     52  45  76 SW5         N/A
*BIG BEAR AIRP SUNNY     36  23  60 W6        29.94S WCI  31
*BIG PINES       N/A     35  28  75 S2          N/A
*CHILAO          N/A     42  39  89 SE7         N/A
SANDBERG       MOCLDY    46  39  76 S10       29.94S
*WARM SPRINGS    N/A     45  32  59 CALM        N/A

$$

CAZ028-029-059-060-099-241000-
ANTELOPE VALLEY AND SURROUNDING AREAS


CITY           SKY/WX    TMP DP  RH WIND       PRES   REMARKS
LANCASTER      CLEAR     53  41  63 SW16      29.88S
PALMDALE       PTCLDY    52  44  74 SW10      29.88S
*POPPY PARK      N/A     51  41  68 SW16G28     N/A

CITY           SKY/WX    TMP DP  RH WIND       PRES   REMARKS
29 PALMS       CLEAR     61  32  33 NW6       29.87S
BARSTOW/DAGGET CLEAR     61  39  44 SW23G31   29.81S
BISHOP         CLOUDY    48  41  76 N10       29.86S
CHINA LAKE     CLEAR     60  33  36 W3        29.74S
EDWARDS AFB    PTCLDY    53  42  65 SW17      29.84S
MOJAVE         CLEAR     55  39  54 SW8G14    29.85S
NEEDLES        CLEAR     75  38  26 W15       29.71R
VICTORVILLE    MOCLDY    52  43  71 S10       29.87S

$$

CAZ039-040-241000-
VENTURA AND SANTA BARBARA COUNTY COAST


CITY           SKY/WX    TMP DP  RH WIND       PRES   REMARKS
CAMARILLO      PTCLDY    58  50  75 S3        29.92S
NWS OXNARD       N/A     57  50  78 CALM      29.91S
OXNARD AIRPORT MOCLDY    58  52  80 CALM      29.92S
*POINT MUGU    PTCLDY    56  51  84 W3        29.93S
SBA APT/GOLETA MOCLDY    55  47  74 E3        29.91S
*SANTA BARBARA   N/A     58  47  66 CALM      29.98S
*VENTURA         N/A     57  53  86 NE1       29.90S

$$

CAZ044-045-241000-
VENTURA COUNTY VALLEYS


CITY           SKY/WX    TMP DP  RH WIND       PRES   REMARKS
*SIMI VALLEY     N/A     53  50  87 CALM      29.88S
*WESTLAKE VILL   N/A     47  44  89 CALM      29.91S
*OJAI            N/A     52  49  89 CALM      29.86F
*FILLMORE        N/A     57  51  81 CALM      29.81F

$$

CAZ053-241000-
VENTURA COUNTY MOUNTAINS


CITY           SKY/WX    TMP DP  RH WIND       PRES   REMARKS
*LOCKWOOD VLY    N/A     39  36  87 CALM        N/A
*ROSE VALLEY     N/A     43  43 100 MISG        N/A

$$

CAZ034-035-036-241000-
CENTRAL COAST AND SANTA YNEZ VALLEY


CITY           SKY/WX    TMP DP  RH WIND       PRES   REMARKS
SAN LUIS OBISP CLOUDY    57  53  86 NW8       29.94S FOG
SANTA MARIA    CLOUDY    54  54 100 NW6       29.95S FOG

CITY           SKY/WX    TMP DP  RH WIND       PRES   REMARKS
*CAL POLY SLO    N/A     55  54  94 CALM        N/A
*LOMPOC        CLOUDY    55  53  93 NW3       29.95S
*PISMO BEACH     N/A     56  54  92 W1        29.95S
*SANTA YNEZ    CLOUDY    52  45  76 W3        29.94S

$$

CAZ037-038-051-241000-
SAN LUIS OBISPO COUNTY INTERIOR AND CUYAMA VALLEY


CITY           SKY/WX    TMP DP  RH WIND       PRES   REMARKS
*CUYAMA          N/A     49  44  83 W8        29.86S
PASO ROBLES    CLOUDY    53  48  83 SW7       29.92S

$$

CAZ032-033-061-241000-
SOUTHERN DESERTS


CITY           SKY/WX    TMP DP  RH WIND       PRES   REMARKS
BLYTHE         CLEAR     68  47  46 S12       29.73S
IMPERIAL       CLEAR     66  40  38 W25G35    29.77R
PALM SPRINGS   CLEAR     67  43  41 NW17      29.78S
THERMAL        CLEAR     66  45  46 N26G33    29.74S

$$

ELSEWHERE ACROSS THE WESTERN UNITED STATES AND MEXICO


CITY           SKY/WX    TMP DP  RH WIND       PRES   REMARKS
DEATH VALLEY,    N/A     76  35  22 S5          N/A
DENVER, CO     PTCLDY    46  39  76 S8        29.93F
GRAND CANYON,  CLEAR     48  21  34 S9        29.95F
HONOLULU, HI   LGT RAIN  75  70  83 N3        30.11S
KAHULUI, MAUI  PTCLDY    73  66  78 NE14      30.10R
LAKE TAHOE, CA LGT RAIN  40  35  83 CALM      29.92S
LAS VEGAS, NV  PTCLDY    67  35  30 SW13G29   29.69R
MAMMOTH LAKES, FAIR      33  27  80 CALM      29.92S
MEXICO CITY, M PTCLDY    57  52  82 NE5       30.31R
PHOENIX, AZ    CLEAR     73  28  18 S7        29.77S
PORTLAND, OR   MOCLDY    56  50  80 NW6       29.95S
RENO, NV       CLOUDY    51  39  63 S7        29.89F
SALT LAKE CITY MOCLDY    52  42  69 CALM      29.80F
SAN DIEGO, CA  MOCLDY    63  50  62 SW7       29.96S
SAN FRANCISCO, CLOUDY    56  48  74 W12       29.91F
SAN JOSE, CA   CLOUDY    56  49  77 NW8       29.92F
SEATTLE, WA    CLOUDY    58  49  72 N6        29.95S
TIJUANA, MEX   CLOUDY    59  46  63 SE8       29.98F

$$

STATION/POSITION TIME  TEMP    WIND        PRES    VSBY  WAVE
                       AIR SEA DIR/SP/G                  HT/PER
                 (UTC) (F)     (DEG/KT/KT) (MB)    (MI)  (FT/S)
POINT ARGUELLO B NOT AVBL
WEST SANTA BARBA 0850   55 56  330/ 12/ 14 1013.2F         3/ 6
POINT CONCEPTION NOT AVBL
EAST SANTA BARBA 0800   58 59  290/ 10/ 14 1013.4R
SANTA MONICA BAY 0850   59 63  270/  6/ 10 1013.3F         5/ 6



USA.gov is the U.S. government's official web portal to all federal, state and local government web resources and services.